| time (UTC) | temp C | wind direction | speed KPH | gust KPH | rain 1hr cm | rain 24hr cm | rain mn cm | humidity % | barometer mb |
| 20260507085403 | 6 | 214 | 3.2 | 8.0 | 0.00 | 0.00 | 0.00 | 77 | 1012.8 |
| 20260507084904 | 6 | 210 | 3.2 | 6.4 | 0.00 | 0.00 | 0.00 | 77 | 1012.9 |
| 20260507084404 | 5 | 234 | 1.6 | 6.4 | 0.00 | 0.00 | 0.00 | 75 | 1013.0 |
| 20260507083902 | 5 | 178 | 1.6 | 3.2 | 0.00 | 0.00 | 0.00 | 75 | 1013.0 |
| 20260507083402 | 5 | 221 | 0.0 | 3.2 | 0.00 | 0.00 | 0.00 | 74 | 1013.1 |
| 20260507082856 | 5 | 137 | 0.0 | 3.2 | 0.00 | 0.00 | 0.00 | 74 | 1013.3 |
| 20260507082357 | 5 | 161 | 1.6 | 3.2 | 0.00 | 0.00 | 0.00 | 74 | 1013.3 |
| 20260507081855 | 5 | 178 | 0.0 | 3.2 | 0.00 | 0.00 | 0.00 | 73 | 1013.4 |
| 20260507080855 | 5 | 196 | 1.6 | 3.2 | 0.00 | 0.00 | 0.00 | 73 | 1013.5 |
| 20260507080355 | 5 | 146 | 1.6 | 3.2 | 0.00 | 0.00 | 0.00 | 73 | 1013.6 |
| 20260507075356 | 5 | 119 | 0.0 | 1.6 | 0.00 | 0.00 | 0.00 | 72 | 1013.8 |
| 20260507074354 | 5 | 178 | 0.0 | 4.8 | 0.00 | 0.00 | 0.00 | 73 | 1013.8 |
| 20260507073854 | 5 | 119 | 0.0 | 3.2 | 0.00 | 0.00 | 0.00 | 72 | 1013.8 |
| 20260507072353 | 5 | 178 | 0.0 | 1.6 | 0.00 | 0.00 | 0.00 | 72 | 1013.9 |
| 20260507071847 | 5 | 126 | 0.0 | 1.6 | 0.00 | 0.00 | 0.00 | 72 | 1014.0 |
| 20260507071347 | 5 | 298 | 0.0 | 3.2 | 0.00 | 0.00 | 0.00 | 73 | 1014.2 |
| 20260507070846 | 5 | 119 | 1.6 | 3.2 | 0.00 | 0.00 | 0.00 | 73 | 1014.2 |
| 20260507070347 | 5 | 162 | 1.6 | 4.8 | 0.00 | 0.00 | 0.00 | 74 | 1014.1 |
| 20260507065846 | 5 | 129 | 1.6 | 6.4 | 0.00 | 0.00 | 0.00 | 75 | 1014.2 |
| 20260507065345 | 5 | 83 | 3.2 | 6.4 | 0.00 | 0.00 | 0.00 | 75 | 1014.3 |
| 20260507064841 | 5 | 137 | 3.2 | 4.8 | 0.00 | 0.00 | 0.00 | 74 | 1014.5 |
| 20260507064341 | 5 | 124 | 3.2 | 4.8 | 0.00 | 0.00 | 0.00 | 74 | 1014.5 |
| 20260507063339 | 5 | 119 | 1.6 | 4.8 | 0.00 | 0.00 | 0.00 | 74 | 1014.5 |
| 20260507062338 | 5 | 111 | 1.6 | 4.8 | 0.00 | 0.00 | 0.00 | 76 | 1014.6 |
| 20260507061838 | 5 | 117 | 1.6 | 4.8 | 0.00 | 0.00 | 0.00 | 76 | 1014.6 |
| 20260507061338 | 4 | 121 | 3.2 | 4.8 | 0.00 | 0.00 | 0.00 | 76 | 1014.7 |
| 20260507060837 | 4 | 115 | 3.2 | 4.8 | 0.00 | 0.00 | 0.00 | 77 | 1014.8 |
| 20260507060337 | 4 | 111 | 1.6 | 4.8 | 0.00 | 0.00 | 0.00 | 76 | 1014.8 |
| 20260507055837 | 4 | 238 | 0.0 | 4.8 | 0.00 | 0.00 | 0.00 | 76 | 1014.8 |
| 20260507055337 | 4 | 124 | 1.6 | 4.8 | 0.00 | 0.00 | 0.00 | 76 | 1014.8 |
| 20260507054839 | 4 | 83 | 3.2 | 4.8 | 0.00 | 0.00 | 0.00 | 77 | 1014.8 |
| 20260507054337 | 4 | 111 | 1.6 | 4.8 | 0.00 | 0.00 | 0.00 | 77 | 1014.9 |
| 20260507053336 | 4 | 238 | 0.0 | 3.2 | 0.00 | 0.00 | 0.00 | 77 | 1014.9 |
| 20260507052837 | 4 | 153 | 1.6 | 4.8 | 0.00 | 0.00 | 0.00 | 78 | 1014.9 |
| 20260507051836 | 3 | 153 | 1.6 | 3.2 | 0.00 | 0.00 | 0.00 | 78 | 1014.9 |
| 20260507051337 | 3 | 80 | 1.6 | 3.2 | 0.00 | 0.00 | 0.00 | 77 | 1015.1 |
| 20260507050837 | 3 | 212 | 1.6 | 3.2 | 0.00 | 0.00 | 0.00 | 76 | 1015.1 |
| 20260507050337 | 3 | 232 | 0.0 | 1.6 | 0.00 | 0.00 | 0.00 | 76 | 1014.9 |
| 20260507045834 | 3 | 137 | 0.0 | 1.6 | 0.00 | 0.00 | 0.00 | 75 | 1014.8 |
| 20260507045335 | 4 | 137 | 0.0 | 1.6 | 0.00 | 0.00 | 0.00 | 75 | 1014.9 |
| 20260507044836 | 4 | 93 | 0.0 | 0.0 | 0.00 | 0.00 | 0.00 | 74 | 1015.0 |
| 20260507043834 | 4 | 93 | 0.0 | 3.2 | 0.00 | 0.00 | 0.00 | 73 | 1015.1 |
| 20260507043334 | 4 | 221 | 0.0 | 3.2 | 0.00 | 0.00 | 0.00 | 73 | 1015.1 |
| 20260507042834 | 4 | 162 | 1.6 | 3.2 | 0.00 | 0.00 | 0.00 | 72 | 1015.2 |
| 20260507042335 | 4 | 93 | 0.0 | 3.2 | 0.00 | 0.00 | 0.00 | 71 | 1015.3 |
| 20260507041833 | 5 | 34 | 1.6 | 6.4 | 0.00 | 0.00 | 0.00 | 71 | 1015.3 |
| 20260507041333 | 5 | 76 | 3.2 | 6.4 | 0.00 | 0.00 | 0.00 | 70 | 1015.4 |
| 20260507040333 | 5 | 265 | 0.0 | 1.6 | 0.00 | 0.00 | 0.00 | 70 | 1015.3 |
| 20260507035834 | 5 | 178 | 0.0 | 1.6 | 0.00 | 0.00 | 0.00 | 69 | 1015.4 |
| 20260507035333 | 5 | 137 | 1.6 | 1.6 | 0.00 | 0.00 | 0.00 | 69 | 1015.4 |
| 20260507034832 | 5 | 178 | 1.6 | 1.6 | 0.00 | 0.00 | 0.00 | 69 | 1015.4 |
| 20260507034334 | 6 | 309 | 0.0 | 3.2 | 0.00 | 0.00 | 0.00 | 68 | 1015.4 |
| 20260507033832 | 6 | 309 | 0.0 | 3.2 | 0.00 | 0.00 | 0.00 | 66 | 1015.4 |
| 20260507033332 | 6 | 51 | 0.0 | 1.6 | 0.00 | 0.00 | 0.00 | 65 | 1015.5 |
| 20260507032832 | 6 | 119 | 0.0 | 1.6 | 0.00 | 0.00 | 0.00 | 64 | 1015.6 |
| 20260507032332 | 6 | 51 | 0.0 | 1.6 | 0.00 | 0.00 | 0.00 | 62 | 1015.6 |
| 20260507031832 | 6 | 309 | 0.0 | 1.6 | 0.00 | 0.00 | 0.00 | 61 | 1015.7 |
| 20260507031330 | 6 | 309 | 1.6 | 1.6 | 0.00 | 0.00 | 0.00 | 60 | 1015.6 |
| 20260507030830 | 6 | 9 | 1.6 | 1.6 | 0.00 | 0.00 | 0.00 | 59 | 1015.6 |
| 20260507025829 | 7 | 9 | 0.0 | 1.6 | 0.00 | 0.00 | 0.00 | 58 | 1015.6 |
| 20260507025329 | 7 | 205 | 0.0 | 1.6 | 0.00 | 0.00 | 0.00 | 58 | 1015.6 |
| 20260507024829 | 7 | 178 | 0.0 | 1.6 | 0.00 | 0.00 | 0.00 | 57 | 1015.5 |
| 20260507024329 | 7 | 309 | 0.0 | 1.6 | 0.00 | 0.00 | 0.00 | 54 | 1015.6 |
| 20260507023829 | 7 | 291 | 0.0 | 1.6 | 0.00 | 0.00 | 0.00 | 54 | 1015.6 |
| 20260507023328 | 8 | 137 | 1.6 | 1.6 | 0.00 | 0.00 | 0.00 | 53 | 1015.6 |
| 20260507022828 | 8 | 111 | 0.0 | 3.2 | 0.00 | 0.00 | 0.00 | 52 | 1015.5 |
| 20260507022328 | 8 | 93 | 1.6 | 3.2 | 0.00 | 0.00 | 0.00 | 51 | 1015.4 |
| 20260507021827 | 8 | 119 | 1.6 | 3.2 | 0.00 | 0.00 | 0.00 | 49 | 1015.4 |
| 20260507021327 | 8 | 137 | 0.0 | 1.6 | 0.00 | 0.00 | 0.00 | 50 | 1015.3 |
| 20260507020827 | 9 | 162 | 0.0 | 1.6 | 0.00 | 0.00 | 0.00 | 49 | 1015.4 |
| 20260507020327 | 10 | 137 | 0.0 | 1.6 | 0.00 | 0.00 | 0.00 | 47 | 1015.3 |
| 20260507015827 | 10 | 51 | 0.0 | 1.6 | 0.00 | 0.00 | 0.00 | 46 | 1015.2 |
| 20260507015328 | 10 | 146 | 0.0 | 3.2 | 0.00 | 0.00 | 0.00 | 45 | 1015.3 |
| 20260507014828 | 11 | 178 | 0.0 | 3.2 | 0.00 | 0.00 | 0.00 | 43 | 1015.3 |
| 20260507014326 | 11 | 119 | 0.0 | 3.2 | 0.00 | 0.00 | 0.00 | 40 | 1015.2 |
| 20260507013826 | 11 | 119 | 1.6 | 3.2 | 0.00 | 0.00 | 0.00 | 40 | 1015.2 |
| 20260507013326 | 12 | 205 | 0.0 | 1.6 | 0.00 | 0.00 | 0.00 | 38 | 1015.2 |
| 20260507012825 | 12 | 34 | 0.0 | 1.6 | 0.00 | 0.00 | 0.00 | 37 | 1015.2 |
| 20260507012326 | 12 | 51 | 0.0 | 1.6 | 0.00 | 0.00 | 0.00 | 36 | 1015.3 |
| 20260507011827 | 12 | 178 | 0.0 | 3.2 | 0.00 | 0.00 | 0.00 | 36 | 1015.2 |
| 20260507011322 | 12 | 9 | 0.0 | 4.8 | 0.00 | 0.00 | 0.00 | 34 | 1015.2 |
| 20260507010811 | 12 | 330 | 1.6 | 4.8 | 0.00 | 0.00 | 0.00 | 33 | 1015.2 |
| 20260507005309 | 13 | 340 | 3.2 | 6.4 | 0.00 | 0.00 | 0.00 | 35 | 1015.2 |
| 20260507004808 | 13 | 17 | 3.2 | 8.0 | 0.00 | 0.00 | 0.00 | 32 | 1015.1 |
| 20260507004309 | 13 | 31 | 3.2 | 8.0 | 0.00 | 0.00 | 0.00 | 34 | 1015.2 |
| 20260507003809 | 14 | 103 | 1.6 | 6.4 | 0.00 | 0.00 | 0.00 | 33 | 1015.3 |
| 20260507003308 | 14 | 32 | 1.6 | 6.4 | 0.00 | 0.00 | 0.00 | 34 | 1015.4 |
| 20260507002808 | 14 | 334 | 3.2 | 4.8 | 0.00 | 0.00 | 0.00 | 33 | 1015.2 |
| 20260507002308 | 15 | 298 | 1.6 | 4.8 | 0.00 | 0.00 | 0.00 | 35 | 1015.4 |
| 20260507001808 | 15 | 334 | 1.6 | 6.4 | 0.00 | 0.00 | 0.00 | 33 | 1015.5 |
| 20260507000807 | 15 | 291 | 4.8 | 14.5 | 0.00 | 0.00 | 0.00 | 30 | 1015.6 |
| 20260507000307 | 16 | 342 | 8.0 | 14.5 | 0.00 | 0.00 | 0.00 | 31 | 1015.5 |
| 20260506235806 | 16 | 273 | 3.2 | 11.3 | 0.00 | 0.00 | 0.00 | 32 | 1015.6 |
| 20260506235306 | 16 | 275 | 3.2 | 11.3 | 0.00 | 0.00 | 0.00 | 30 | 1015.6 |
| 20260506234805 | 17 | 312 | 3.2 | 12.9 | 0.00 | 0.00 | 0.00 | 31 | 1015.7 |
| 20260506234305 | 17 | 319 | 4.8 | 12.9 | 0.00 | 0.00 | 0.00 | 31 | 1015.7 |
| 20260506233805 | 17 | 298 | 4.8 | 12.9 | 0.00 | 0.00 | 0.00 | 30 | 1015.7 |
| 20260506233305 | 17 | 291 | 4.8 | 14.5 | 0.00 | 0.00 | 0.00 | 31 | 1015.7 |
| 20260506232806 | 17 | 309 | 4.8 | 14.5 | 0.00 | 0.00 | 0.00 | 32 | 1015.7 |
| 20260506232306 | 17 | 344 | 4.8 | 9.7 | 0.00 | 0.00 | 0.00 | 32 | 1015.7 |
| 20260506231803 | 17 | 348 | 3.2 | 12.9 | 0.00 | 0.00 | 0.00 | 31 | 1015.9 |
| 20260506231303 | 17 | 9 | 4.8 | 12.9 | 0.00 | 0.00 | 0.00 | 29 | 1015.9 |
| 20260506230803 | 17 | 286 | 4.8 | 14.5 | 0.00 | 0.00 | 0.00 | 30 | 1015.9 |
| 20260506225301 | 17 | 305 | 4.8 | 14.5 | 0.00 | 0.00 | 0.00 | 31 | 1015.9 |
| 20260506224801 | 17 | 279 | 6.4 | 12.9 | 0.00 | 0.00 | 0.00 | 31 | 1016.0 |
| 20260506223800 | 17 | 281 | 8.0 | 16.1 | 0.00 | 0.00 | 0.00 | 28 | 1016.0 |
| 20260506223300 | 17 | 321 | 3.2 | 16.1 | 0.00 | 0.00 | 0.00 | 32 | 1016.2 |
| 20260506222801 | 17 | 340 | 4.8 | 17.7 | 0.00 | 0.00 | 0.00 | 30 | 1016.2 |
| 20260506222259 | 17 | 244 | 9.7 | 17.7 | 0.00 | 0.00 | 0.00 | 29 | 1016.2 |
| 20260506221759 | 17 | 331 | 4.8 | 12.9 | 0.00 | 0.00 | 0.00 | 29 | 1016.3 |
| 20260506221258 | 17 | 279 | 4.8 | 16.1 | 0.00 | 0.00 | 0.00 | 29 | 1016.5 |
| 20260506220759 | 17 | 300 | 8.0 | 16.1 | 0.00 | 0.00 | 0.00 | 31 | 1016.5 |
| 20260506220258 | 17 | 317 | 6.4 | 19.3 | 0.00 | 0.00 | 0.00 | 34 | 1016.5 |
| 20260506215757 | 17 | 300 | 8.0 | 19.3 | 0.00 | 0.00 | 0.00 | 29 | 1016.5 |
| 20260506215257 | 18 | 309 | 6.4 | 16.1 | 0.00 | 0.00 | 0.00 | 30 | 1016.6 |
| 20260506214257 | 17 | 304 | 6.4 | 22.5 | 0.00 | 0.00 | 0.00 | 32 | 1016.7 |
| 20260506213755 | 17 | 316 | 8.0 | 22.5 | 0.00 | 0.00 | 0.00 | 33 | 1016.7 |
| 20260506213254 | 17 | 312 | 6.4 | 17.7 | 0.00 | 0.00 | 0.00 | 29 | 1016.8 |
| 20260506212755 | 17 | 305 | 6.4 | 17.7 | 0.00 | 0.00 | 0.00 | 32 | 1016.9 |
| 20260506212254 | 18 | 307 | 8.0 | 17.7 | 0.00 | 0.00 | 0.00 | 29 | 1016.8 |
| 20260506211253 | 17 | 348 | 9.7 | 22.5 | 0.00 | 0.00 | 0.00 | 31 | 1016.8 |
| 20260506210753 | 17 | 305 | 6.4 | 22.5 | 0.00 | 0.00 | 0.00 | 32 | 1017.0 |
| 20260506210251 | 17 | 297 | 9.7 | 22.5 | 0.00 | 0.00 | 0.00 | 30 | 1017.0 |
| 20260506205251 | 17 | 255 | 8.0 | 22.5 | 0.00 | 0.00 | 0.00 | 30 | 1017.2 |
| 20260506204749 | 17 | 295 | 4.8 | 22.5 | 0.00 | 0.00 | 0.00 | 29 | 1017.2 |
| 20260506204249 | 17 | 288 | 4.8 | 19.3 | 0.00 | 0.00 | 0.00 | 35 | 1017.1 |
| 20260506203748 | 16 | 319 | 4.8 | 19.3 | 0.00 | 0.00 | 0.00 | 35 | 1017.4 |
| 20260506203248 | 16 | 332 | 8.0 | 16.1 | 0.00 | 0.00 | 0.00 | 36 | 1017.4 |
| 20260506202749 | 16 | 239 | 9.7 | 22.5 | 0.00 | 0.00 | 0.00 | 31 | 1017.5 |
| 20260506202248 | 16 | 225 | 9.7 | 22.5 | 0.00 | 0.00 | 0.00 | 31 | 1017.5 |
| 20260506201747 | 17 | 301 | 12.9 | 22.5 | 0.00 | 0.00 | 0.00 | 30 | 1017.6 |
| 20260506201247 | 17 | 257 | 8.0 | 24.1 | 0.00 | 0.00 | 0.00 | 34 | 1017.6 |
| 20260506200746 | 16 | 261 | 14.5 | 24.1 | 0.00 | 0.00 | 0.00 | 32 | 1017.6 |
| 20260506200246 | 16 | 23 | 11.3 | 20.9 | 0.00 | 0.00 | 0.00 | 31 | 1017.7 |
| 20260506195746 | 16 | 265 | 8.0 | 19.3 | 0.00 | 0.00 | 0.00 | 37 | 1017.8 |
| 20260506195247 | 16 | 332 | 8.0 | 19.3 | 0.00 | 0.00 | 0.00 | 32 | 1017.8 |
| 20260506194746 | 16 | 282 | 8.0 | 27.4 | 0.00 | 0.00 | 0.00 | 35 | 1017.8 |
| 20260506194245 | 16 | 323 | 11.3 | 27.4 | 0.00 | 0.00 | 0.00 | 31 | 1017.9 |
| 20260506193745 | 16 | 282 | 8.0 | 24.1 | 0.00 | 0.00 | 0.00 | 33 | 1017.8 |
| 20260506193245 | 16 | 34 | 8.0 | 24.1 | 0.00 | 0.00 | 0.00 | 35 | 1017.8 |
| 20260506192746 | 16 | 347 | 8.0 | 24.1 | 0.00 | 0.00 | 0.00 | 35 | 1017.9 |
| 20260506191744 | 17 | 287 | 6.4 | 27.4 | 0.00 | 0.00 | 0.00 | 33 | 1017.9 |
| 20260506191244 | 17 | 323 | 8.0 | 19.3 | 0.00 | 0.00 | 0.00 | 38 | 1017.9 |
| 20260506190744 | 16 | 294 | 9.7 | 24.1 | 0.00 | 0.00 | 0.00 | 35 | 1017.9 |
| 20260506185742 | 16 | 300 | 6.4 | 19.3 | 0.00 | 0.00 | 0.00 | 37 | 1017.9 |
| 20260506185243 | 16 | 334 | 6.4 | 24.1 | 0.00 | 0.00 | 0.00 | 39 | 1018.1 |
| 20260506184742 | 16 | 265 | 6.4 | 27.4 | 0.00 | 0.00 | 0.00 | 35 | 1018.1 |
| 20260506184242 | 16 | 346 | 4.8 | 27.4 | 0.00 | 0.00 | 0.00 | 35 | 1018.1 |
| 20260506183742 | 16 | 336 | 8.0 | 24.1 | 0.00 | 0.00 | 0.00 | 33 | 1018.3 |
| 20260506182744 | 16 | 17 | 6.4 | 17.7 | 0.00 | 0.00 | 0.00 | 35 | 1018.3 |
| 20260506181742 | 16 | 309 | 9.7 | 20.9 | 0.00 | 0.00 | 0.00 | 37 | 1018.3 |
| 20260506181241 | 16 | 335 | 8.0 | 19.3 | 0.00 | 0.00 | 0.00 | 37 | 1018.4 |
| 20260506180742 | 15 | 316 | 6.4 | 17.7 | 0.00 | 0.00 | 0.00 | 37 | 1018.5 |
| 20260506180240 | 15 | 242 | 9.7 | 22.5 | 0.00 | 0.00 | 0.00 | 38 | 1018.5 |
| 20260506175239 | 15 | 309 | 8.0 | 22.5 | 0.00 | 0.00 | 0.00 | 37 | 1018.6 |
| 20260506174738 | 15 | 61 | 8.0 | 22.5 | 0.00 | 0.00 | 0.00 | 36 | 1018.7 |
| 20260506174238 | 15 | 304 | 11.3 | 22.5 | 0.00 | 0.00 | 0.00 | 37 | 1018.7 |
| 20260506173737 | 15 | 273 | 6.4 | 14.5 | 0.00 | 0.00 | 0.00 | 40 | 1018.9 |
| 20260506173238 | 15 | 332 | 6.4 | 17.7 | 0.00 | 0.00 | 0.00 | 39 | 1018.7 |
| 20260506172739 | 15 | 265 | 8.0 | 22.5 | 0.00 | 0.00 | 0.00 | 38 | 1018.8 |
| 20260506172237 | 15 | 319 | 14.5 | 22.5 | 0.00 | 0.00 | 0.00 | 40 | 1019.0 |
| 20260506171736 | 15 | 330 | 8.0 | 19.3 | 0.00 | 0.00 | 0.00 | 38 | 1019.1 |
| 20260506171236 | 15 | 287 | 9.7 | 20.9 | 0.00 | 0.00 | 0.00 | 39 | 1019.1 |
| 20260506170737 | 15 | 292 | 3.2 | 25.7 | 0.00 | 0.00 | 0.00 | 37 | 1019.2 |
| 20260506164735 | 15 | 342 | 6.4 | 20.9 | 0.00 | 0.00 | 0.00 | 40 | 1019.2 |
| 20260506164234 | 15 | 300 | 6.4 | 22.5 | 0.00 | 0.00 | 0.00 | 40 | 1019.2 |
| 20260506163734 | 14 | 302 | 9.7 | 24.1 | 0.00 | 0.00 | 0.00 | 39 | 1019.3 |
| 20260506163235 | 14 | 321 | 6.4 | 24.1 | 0.00 | 0.00 | 0.00 | 40 | 1019.2 |
| 20260506162735 | 14 | 22 | 8.0 | 22.5 | 0.00 | 0.00 | 0.00 | 38 | 1019.2 |
| 20260506162233 | 14 | 342 | 11.3 | 22.5 | 0.00 | 0.00 | 0.00 | 39 | 1019.2 |
| 20260506161733 | 14 | 269 | 9.7 | 22.5 | 0.00 | 0.00 | 0.00 | 39 | 1019.1 |
| 20260506161233 | 14 | 333 | 8.0 | 22.5 | 0.00 | 0.00 | 0.00 | 43 | 1019.2 |
| 20260506160732 | 14 | 238 | 8.0 | 16.1 | 0.00 | 0.00 | 0.00 | 41 | 1019.1 |
| 20260506160232 | 14 | 304 | 4.8 | 12.9 | 0.00 | 0.00 | 0.00 | 42 | 1019.1 |
| 20260506155731 | 13 | 317 | 4.8 | 19.3 | 0.00 | 0.00 | 0.00 | 43 | 1019.1 |
| 20260506155231 | 13 | 9 | 6.4 | 19.3 | 0.00 | 0.00 | 0.00 | 42 | 1019.1 |
| 20260506154231 | 13 | 9 | 6.4 | 14.5 | 0.00 | 0.00 | 0.00 | 47 | 1019.1 |
| 20260506153731 | 13 | 341 | 4.8 | 14.5 | 0.00 | 0.00 | 0.00 | 48 | 1019.1 |
| 20260506153231 | 13 | 316 | 4.8 | 14.5 | 0.00 | 0.00 | 0.00 | 47 | 1019.2 |
| 20260506152731 | 12 | 293 | 6.4 | 14.5 | 0.00 | 0.00 | 0.00 | 48 | 1019.2 |
| 20260506152230 | 12 | 307 | 4.8 | 11.3 | 0.00 | 0.00 | 0.00 | 46 | 1019.3 |
| 20260506151729 | 12 | 219 | 3.2 | 12.9 | 0.00 | 0.00 | 0.00 | 47 | 1019.2 |
| 20260506151229 | 12 | 272 | 4.8 | 17.7 | 0.00 | 0.00 | 0.00 | 46 | 1019.3 |
| 20260506150227 | 12 | 13 | 3.2 | 14.5 | 0.00 | 0.00 | 0.00 | 48 | 1019.2 |
| 20260506145727 | 12 | 296 | 3.2 | 12.9 | 0.00 | 0.00 | 0.00 | 51 | 1019.2 |
| 20260506145227 | 12 | 286 | 4.8 | 12.9 | 0.00 | 0.00 | 0.00 | 53 | 1019.3 |
| 20260506144228 | 11 | 341 | 3.2 | 14.5 | 0.00 | 0.00 | 0.00 | 50 | 1019.2 |
| 20260506143726 | 11 | 340 | 4.8 | 14.5 | 0.00 | 0.00 | 0.00 | 51 | 1019.4 |
| 20260506143227 | 11 | 229 | 3.2 | 12.9 | 0.00 | 0.00 | 0.00 | 47 | 1019.3 |
| 20260506142225 | 11 | 344 | 3.2 | 9.7 | 0.00 | 0.00 | 0.00 | 52 | 1019.3 |
| 20260506141725 | 11 | 304 | 4.8 | 9.7 | 0.00 | 0.00 | 0.00 | 51 | 1019.2 |
| 20260506140223 | 10 | 346 | 3.2 | 8.0 | 0.00 | 0.00 | 0.00 | 57 | 1019.1 |
| 20260506135723 | 9 | 275 | 3.2 | 6.4 | 0.00 | 0.00 | 0.00 | 61 | 1019.0 |
| 20260506135223 | 8 | 346 | 1.6 | 6.4 | 0.00 | 0.00 | 0.00 | 64 | 1019.0 |
| 20260506134723 | 7 | 20 | 1.6 | 6.4 | 0.00 | 0.00 | 0.00 | 66 | 1018.9 |
| 20260506134223 | 6 | 287 | 3.2 | 6.4 | 0.00 | 0.00 | 0.00 | 68 | 1018.9 |
| 20260506133721 | 6 | 250 | 3.2 | 6.4 | 0.00 | 0.00 | 0.00 | 72 | 1018.9 |
| 20260506133223 | 5 | 338 | 1.6 | 6.4 | 0.00 | 0.00 | 0.00 | 75 | 1018.9 |
| 20260506132722 | 4 | 221 | 3.2 | 6.4 | 0.00 | 0.00 | 0.00 | 78 | 1018.9 |
| 20260506132220 | 3 | 282 | 3.2 | 6.4 | 0.00 | 0.00 | 0.00 | 79 | 1018.8 |
| 20260506131720 | 3 | 300 | 1.6 | 8.0 | 0.00 | 0.00 | 0.00 | 79 | 1018.7 |
| 20260506131220 | 2 | 22 | 3.2 | 8.0 | 0.00 | 0.00 | 0.00 | 79 | 1018.7 |
| 20260506130720 | 2 | 319 | 3.2 | 6.4 | 0.00 | 0.00 | 0.00 | 80 | 1018.6 |
| 20260506125719 | 1 | 309 | 3.2 | 6.4 | 0.00 | 0.00 | 0.00 | 81 | 1018.7 |
| 20260506125218 | 1 | 309 | 3.2 | 6.4 | 0.00 | 0.00 | 0.00 | 81 | 1018.7 |
| 20260506124717 | 1 | 9 | 3.2 | 6.4 | 0.00 | 0.00 | 0.00 | 82 | 1018.7 |
| 20260506123719 | 1 | 339 | 3.2 | 6.4 | 0.00 | 0.00 | 0.00 | 82 | 1018.4 |
| 20260506123215 | 1 | 309 | 3.2 | 6.4 | 0.00 | 0.00 | 0.00 | 82 | 1018.5 |
| 20260506122714 | 1 | 319 | 1.6 | 3.2 | 0.00 | 0.00 | 0.00 | 82 | 1018.4 |
| 20260506122214 | 0 | 221 | 1.6 | 3.2 | 0.00 | 0.00 | 0.00 | 82 | 1018.2 |
| 20260506121715 | 0 | 17 | 1.6 | 3.2 | 0.00 | 0.00 | 0.00 | 81 | 1018.2 |
| 20260506121214 | 0 | 51 | 0.0 | 1.6 | 0.00 | 0.00 | 0.00 | 81 | 1018.0 |
| 20260506120714 | 0 | 178 | 0.0 | 1.6 | 0.00 | 0.00 | 0.00 | 81 | 1018.1 |
| 20260506120158 | 0 | 93 | 0.0 | 3.2 | 0.00 | 0.00 | 0.00 | 81 | 1017.9 |
| 20260506115658 | 0 | 9 | 0.0 | 3.2 | 0.00 | 0.00 | 0.00 | 80 | 1017.9 |
| 20260506115158 | 0 | 26 | 0.0 | 1.6 | 0.00 | 0.00 | 0.00 | 80 | 1017.7 |
| 20260506114657 | 0 | 9 | 0.0 | 1.6 | 0.00 | 0.00 | 0.00 | 80 | 1017.8 |
| 20260506114158 | 0 | 291 | 0.0 | 3.2 | 0.00 | 0.00 | 0.00 | 80 | 1017.7 |
| 20260506113656 | 0 | 221 | 1.6 | 3.2 | 0.00 | 0.00 | 0.00 | 79 | 1017.6 |
| 20260506113157 | 0 | 205 | 0.0 | 1.6 | 0.00 | 0.00 | 0.00 | 79 | 1017.5 |
| 20260506112656 | 0 | 51 | 0.0 | 1.6 | 0.00 | 0.00 | 0.00 | 78 | 1017.5 |
| 20260506112150 | 1 | 9 | 0.0 | 1.6 | 0.00 | 0.00 | 0.00 | 77 | 1017.5 |
| 20260506111150 | 1 | 51 | 0.0 | 1.6 | 0.00 | 0.00 | 0.00 | 77 | 1017.5 |
| 20260506110651 | 1 | 51 | 0.0 | 1.6 | 0.00 | 0.00 | 0.00 | 77 | 1017.5 |
| 20260506110145 | 1 | 119 | 0.0 | 1.6 | 0.00 | 0.00 | 0.00 | 76 | 1017.4 |
| 20260506105645 | 1 | 119 | 0.0 | 1.6 | 0.00 | 0.00 | 0.00 | 76 | 1017.4 |
| 20260506105145 | 1 | 178 | 0.0 | 1.6 | 0.00 | 0.00 | 0.00 | 75 | 1017.4 |
| 20260506104644 | 1 | 265 | 0.0 | 1.6 | 0.00 | 0.00 | 0.00 | 75 | 1017.4 |
| 20260506104144 | 2 | 162 | 0.0 | 1.6 | 0.00 | 0.00 | 0.00 | 74 | 1017.4 |
| 20260506103639 | 2 | 221 | 0.0 | 1.6 | 0.00 | 0.00 | 0.00 | 74 | 1017.3 |
| 20260506103140 | 2 | 111 | 0.0 | 0.0 | 0.00 | 0.00 | 0.00 | 73 | 1017.3 |
| 20260506102638 | 2 | 111 | 0.0 | 0.0 | 0.00 | 0.00 | 0.00 | 73 | 1017.3 |
| 20260506102138 | 2 | 111 | 0.0 | 1.6 | 0.00 | 0.00 | 0.00 | 73 | 1017.3 |
| 20260506101638 | 2 | 111 | 0.0 | 3.2 | 0.00 | 0.00 | 0.00 | 72 | 1017.2 |
| 20260506101138 | 2 | 111 | 1.6 | 3.2 | 0.00 | 0.00 | 0.00 | 72 | 1017.1 |
| 20260506100634 | 2 | 137 | 0.0 | 1.6 | 0.00 | 0.00 | 0.00 | 71 | 1017.1 |
| 20260506100133 | 3 | 137 | 1.6 | 1.6 | 0.00 | 0.00 | 0.00 | 71 | 1017.0 |
| 20260506095632 | 3 | 111 | 0.0 | 1.6 | 0.00 | 0.00 | 0.00 | 70 | 1017.0 |
| 20260506095132 | 3 | 146 | 0.0 | 1.6 | 0.00 | 0.00 | 0.00 | 70 | 1017.1 |
| 20260506094632 | 3 | 162 | 0.0 | 3.2 | 0.00 | 0.00 | 0.00 | 69 | 1017.0 |
| 20260506094131 | 3 | 119 | 0.0 | 4.8 | 0.00 | 0.00 | 0.00 | 68 | 1016.9 |
| 20260506093631 | 3 | 9 | 1.6 | 4.8 | 0.00 | 0.00 | 0.00 | 68 | 1017.1 |
| 20260506093132 | 3 | 334 | 1.6 | 4.8 | 0.00 | 0.00 | 0.00 | 68 | 1016.8 |
| 20260506092631 | 3 | 291 | 1.6 | 4.8 | 0.00 | 0.00 | 0.00 | 68 | 1016.9 |
| 20260506092130 | 3 | 61 | 3.2 | 4.8 | 0.00 | 0.00 | 0.00 | 68 | 1016.7 |
| 20260506091130 | 3 | 303 | 1.6 | 4.8 | 0.00 | 0.00 | 0.00 | 67 | 1016.8 |
| 20260506090629 | 4 | 341 | 1.6 | 3.2 | 0.00 | 0.00 | 0.00 | 67 | 1016.7 |
| 20260506090128 | 4 | 341 | 1.6 | 3.2 | 0.00 | 0.00 | 0.00 | 67 | 1016.6 |